Time,TemperatureF,DewpointF,PressureIn,WindDirection,WindDirectionDegrees,WindSpeedMPH,WindSpeedGustMPH,Humidity,HourlyPrecipIn,Conditions,Clouds,dailyrainin,SolarRadiationWatts/m^2,SoftwareType,DateUTC
2013-01-15 00:03:00,14.3,7.6,30.80,NE,51,0.0,1.0,74,0.00,,OVC050,0.00,0.00,VWS V14.01,2013-01-15 08:03:00,
2013-01-15 00:08:00,14.5,7.4,30.80,NE,51,0.0,1.0,73,0.00,,OVC050,0.00,0.00,VWS V14.01,2013-01-15 08:08:00,
2013-01-15 00:13:00,14.8,7.7,30.80,NE,39,3.0,3.0,73,0.00,,OVC050,0.00,0.00,VWS V14.01,2013-01-15 08:13:00,
2013-01-15 00:18:00,14.9,7.8,30.80,NE,40,3.0,4.0,73,0.00,,OVC050,0.00,0.00,VWS V14.01,2013-01-15 08:18:00,
2013-01-15 00:23:00,15.1,8.0,30.81,NE,50,2.0,3.0,73,0.00,,OVC050,0.00,0.00,VWS V14.01,2013-01-15 08:23:00,
2013-01-15 00:28:00,15.3,8.2,30.81,NE,42,2.0,4.0,73,0.00,,OVC050,0.00,0.00,VWS V14.01,2013-01-15 08:28:00,
2013-01-15 00:33:00,15.5,8.4,30.80,NE,44,2.0,3.0,73,0.00,,OVC050,0.00,0.00,VWS V14.01,2013-01-15 08:33:00,
2013-01-15 00:38:00,15.6,8.2,30.81,NE,50,3.0,4.0,72,0.00,,OVC050,0.00,0.00,VWS V14.01,2013-01-15 08:38:00,
2013-01-15 00:43:00,15.7,8.3,30.80,NE,45,0.0,3.0,72,0.00,,OVC050,0.00,0.00,VWS V14.01,2013-01-15 08:43:00,
2013-01-15 00:48:00,15.6,8.2,30.80,NE,45,0.0,1.0,72,0.00,,OVC050,0.00,0.00,VWS V14.01,2013-01-15 08:48:00,
2013-01-15 00:53:00,15.5,8.1,30.81,NE,45,0.0,0.0,72,0.00,,OVC050,0.00,0.00,VWS V14.01,2013-01-15 08:53:00,
2013-01-15 00:58:00,15.4,7.7,30.80,NE,45,0.0,1.0,71,0.00,,OVC050,0.00,0.00,VWS V14.01,2013-01-15 08:58:00,
2013-01-15 01:03:00,15.2,7.5,30.81,NE,45,0.0,0.0,71,0.00,,OVC048,0.00,0.00,VWS V14.01,2013-01-15 09:03:00,
2013-01-15 01:08:00,15.2,7.8,30.81,NE,45,0.0,0.0,72,0.00,,OVC048,0.00,0.00,VWS V14.01,2013-01-15 09:08:00,
2013-01-15 01:13:00,15.1,7.4,30.80,NE,45,0.0,0.0,71,0.00,,OVC048,0.00,0.00,VWS V14.01,2013-01-15 09:13:00,
2013-01-15 01:18:00,14.9,7.2,30.81,NE,45,0.0,0.0,71,0.00,,OVC048,0.00,0.00,VWS V14.01,2013-01-15 09:18:00,
2013-01-15 01:23:00,14.6,7.2,30.81,NE,45,1.0,1.0,72,0.00,,OVC048,0.00,0.00,VWS V14.01,2013-01-15 09:23:00,
2013-01-15 01:28:00,14.2,6.8,30.80,WNW,286,3.0,3.0,72,0.00,,OVC048,0.00,0.00,VWS V14.01,2013-01-15 09:28:00,
2013-01-15 01:33:00,13.8,6.5,30.81,WNW,286,2.0,2.0,72,0.00,,OVC048,0.00,0.00,VWS V14.01,2013-01-15 09:33:00,
2013-01-15 01:38:00,13.5,6.5,30.80,WNW,286,0.0,2.0,73,0.00,,OVC048,0.00,0.00,VWS V14.01,2013-01-15 09:38:00,
2013-01-15 01:43:00,13.4,6.4,30.81,WNW,286,0.0,0.0,73,0.00,,OVC048,0.00,0.00,VWS V14.01,2013-01-15 09:43:00,
2013-01-15 01:48:00,13.3,6.3,30.81,WNW,286,0.0,0.0,73,0.00,,OVC048,0.00,0.00,VWS V14.01,2013-01-15 09:48:00,
2013-01-15 01:54:00,13.1,6.1,30.81,WNW,286,0.0,0.0,73,0.00,,OVC048,0.00,0.00,VWS V14.01,2013-01-15 09:54:00,
2013-01-15 01:59:00,12.8,5.8,30.81,WNW,286,0.0,0.0,73,0.00,,OVC048,0.00,0.00,VWS V14.01,2013-01-15 09:59:00,
2013-01-15 02:04:00,12.4,5.7,30.81,WNW,286,0.0,1.0,74,0.00,,SCT048,0.00,0.00,VWS V14.01,2013-01-15 10:04:00,
2013-01-15 02:09:00,12.1,5.4,30.81,WNW,286,0.0,0.0,74,0.00,,SCT048,0.00,0.00,VWS V14.01,2013-01-15 10:09:00,
2013-01-15 02:14:00,12.0,5.3,30.81,WNW,286,0.0,0.0,74,0.00,,SCT048,0.00,0.00,VWS V14.01,2013-01-15 10:14:00,
2013-01-15 02:19:00,11.7,5.0,30.81,WNW,286,0.0,0.0,74,0.00,,SCT048,0.00,0.00,VWS V14.01,2013-01-15 10:19:00,
2013-01-15 02:24:00,11.4,4.7,30.81,WNW,286,1.0,1.0,74,0.00,,SCT048,0.00,0.00,VWS V14.01,2013-01-15 10:24:00,
2013-01-15 02:29:00,10.9,4.6,30.80,WNW,286,1.0,2.0,75,0.00,,SCT048,0.00,0.00,VWS V14.01,2013-01-15 10:29:00,
2013-01-15 02:34:00,10.5,4.2,30.80,WNW,286,2.0,2.0,75,0.00,,SCT048,0.00,0.00,VWS V14.01,2013-01-15 10:34:00,
2013-01-15 02:39:00,10.4,4.3,30.81,WNW,286,0.0,1.0,76,0.00,,SCT048,0.00,0.00,VWS V14.01,2013-01-15 10:39:00,
2013-01-15 02:44:00,10.0,4.0,30.80,WNW,286,0.0,1.0,76,0.00,,SCT048,0.00,0.00,VWS V14.01,2013-01-15 10:44:00,
2013-01-15 02:49:00,9.9,4.2,30.81,WNW,286,0.0,0.0,77,0.00,,SCT048,0.00,0.00,VWS V14.01,2013-01-15 10:49:00,
2013-01-15 02:54:00,9.8,4.1,30.81,WNW,286,0.0,0.0,77,0.00,,SCT048,0.00,0.00,VWS V14.01,2013-01-15 10:54:00,
2013-01-15 02:59:00,9.6,3.8,30.81,WNW,286,0.0,0.0,77,0.00,,SCT048,0.00,0.00,VWS V14.01,2013-01-15 10:59:00,
2013-01-15 03:04:00,9.5,3.8,30.81,WNW,286,0.0,0.0,77,0.00,,CLR,0.00,0.00,VWS V14.01,2013-01-15 11:04:00,
2013-01-15 03:09:00,9.4,3.7,30.81,WNW,286,0.0,0.0,77,0.00,,CLR,0.00,0.00,VWS V14.01,2013-01-15 11:09:00,
2013-01-15 03:14:00,9.2,3.5,30.81,WNW,286,0.0,0.0,77,0.00,,CLR,0.00,0.00,VWS V14.01,2013-01-15 11:14:00,
2013-01-15 03:19:00,9.1,3.4,30.81,WNW,286,0.0,0.0,77,0.00,,CLR,0.00,0.00,VWS V14.01,2013-01-15 11:19:00,
2013-01-15 03:24:00,8.8,3.1,30.81,WNW,286,0.0,0.0,77,0.00,,CLR,0.00,0.00,VWS V14.01,2013-01-15 11:24:00,
2013-01-15 03:29:00,8.6,3.2,30.81,WNW,286,0.0,0.0,78,0.00,,CLR,0.00,0.00,VWS V14.01,2013-01-15 11:29:00,
2013-01-15 03:34:00,8.4,3.0,30.81,WNW,286,0.0,0.0,78,0.00,,CLR,0.00,0.00,VWS V14.01,2013-01-15 11:34:00,
2013-01-15 03:39:00,8.3,3.1,30.81,WNW,286,0.0,1.0,79,0.00,,CLR,0.00,0.00,VWS V14.01,2013-01-15 11:39:00,
2013-01-15 03:44:00,8.3,3.4,30.81,WNW,286,0.0,0.0,80,0.00,,CLR,0.00,0.00,VWS V14.01,2013-01-15 11:44:00,
2013-01-15 03:49:00,8.2,3.3,30.81,WNW,286,1.0,2.0,80,0.00,,CLR,0.00,0.00,VWS V14.01,2013-01-15 11:49:00,
2013-01-15 03:54:00,8.2,3.3,30.82,WNW,286,0.0,1.0,80,0.00,,CLR,0.00,0.00,VWS V14.01,2013-01-15 11:54:00,
2013-01-15 03:59:00,8.1,3.2,30.81,WNW,286,1.0,1.0,80,0.00,,CLR,0.00,0.00,VWS V14.01,2013-01-15 11:59:00,
2013-01-15 04:04:00,8.0,3.1,30.81,WNW,286,0.0,2.0,80,0.00,,CLR,0.00,0.00,VWS V14.01,2013-01-15 12:04:00,
2013-01-15 04:09:00,8.0,3.1,30.82,WNW,286,0.0,0.0,80,0.00,,CLR,0.00,0.00,VWS V14.01,2013-01-15 12:09:00,
2013-01-15 04:14:00,8.0,3.1,30.81,WNW,286,0.0,0.0,80,0.00,,CLR,0.00,0.00,VWS V14.01,2013-01-15 12:14:00,
2013-01-15 04:19:00,7.9,2.8,30.82,WNW,286,0.0,0.0,79,0.00,,CLR,0.00,0.00,VWS V14.01,2013-01-15 12:19:00,
2013-01-15 04:24:00,7.8,2.9,30.82,WNW,286,0.0,0.0,80,0.00,,CLR,0.00,0.00,VWS V14.01,2013-01-15 12:24:00,
2013-01-15 04:29:00,7.8,2.9,30.82,WNW,286,0.0,2.0,80,0.00,,CLR,0.00,0.00,VWS V14.01,2013-01-15 12:29:00,
2013-01-15 04:34:00,7.8,2.9,30.81,WNW,286,0.0,0.0,80,0.00,,CLR,0.00,0.00,VWS V14.01,2013-01-15 12:34:00,
2013-01-15 04:39:00,7.7,2.8,30.81,WNW,286,0.0,0.0,80,0.00,,CLR,0.00,0.00,VWS V14.01,2013-01-15 12:39:00,
2013-01-15 04:44:00,7.6,2.7,30.81,WNW,286,0.0,0.0,80,0.00,,CLR,0.00,0.00,VWS V14.01,2013-01-15 12:44:00,
2013-01-15 04:49:00,7.6,2.7,30.81,WNW,286,0.0,0.0,80,0.00,,CLR,0.00,0.00,VWS V14.01,2013-01-15 12:49:00,
2013-01-15 04:54:00,7.5,2.4,30.81,WNW,286,0.0,0.0,79,0.00,,CLR,0.00,0.00,VWS V14.01,2013-01-15 12:54:00,
2013-01-15 04:59:00,7.4,2.3,30.81,WNW,286,0.0,0.0,79,0.00,,CLR,0.00,0.00,VWS V14.01,2013-01-15 12:59:00,
2013-01-15 05:04:00,7.2,2.1,30.81,WNW,286,0.0,0.0,79,0.00,,CLR,0.00,0.00,VWS V14.01,2013-01-15 13:04:00,
2013-01-15 05:09:00,7.2,2.1,30.81,WNW,286,0.0,1.0,79,0.00,,CLR,0.00,0.00,VWS V14.01,2013-01-15 13:09:00,
2013-01-15 05:14:00,7.1,2.2,30.81,WNW,286,0.0,0.0,80,0.00,,CLR,0.00,0.00,VWS V14.01,2013-01-15 13:14:00,
2013-01-15 05:19:00,7.0,2.2,30.81,WNW,286,0.0,1.0,80,0.00,,CLR,0.00,0.00,VWS V14.01,2013-01-15 13:19:00,
2013-01-15 05:24:00,6.9,2.0,30.82,WNW,286,0.0,2.0,80,0.00,,CLR,0.00,0.00,VWS V14.01,2013-01-15 13:24:00,
2013-01-15 05:29:00,7.0,2.4,30.81,WNW,286,0.0,1.0,81,0.00,,CLR,0.00,0.00,VWS V14.01,2013-01-15 13:29:00,
2013-01-15 05:34:00,7.0,2.4,30.82,WNW,286,0.0,0.0,81,0.00,,CLR,0.00,0.00,VWS V14.01,2013-01-15 13:34:00,
2013-01-15 05:39:00,7.0,2.4,30.82,WNW,286,0.0,0.0,81,0.00,,CLR,0.00,0.00,VWS V14.01,2013-01-15 13:39:00,
2013-01-15 05:44:00,7.0,2.4,30.82,WNW,286,0.0,0.0,81,0.00,,CLR,0.00,0.00,VWS V14.01,2013-01-15 13:44:00,
2013-01-15 05:49:00,7.0,2.4,30.83,WNW,286,0.0,0.0,81,0.00,,CLR,0.00,0.00,VWS V14.01,2013-01-15 13:49:00,
2013-01-15 05:54:00,7.0,2.4,30.83,WNW,286,0.0,0.0,81,0.00,,CLR,0.00,0.00,VWS V14.01,2013-01-15 13:54:00,
2013-01-15 05:59:00,6.9,2.3,30.83,WNW,286,0.0,0.0,81,0.00,,CLR,0.00,0.00,VWS V14.01,2013-01-15 13:59:00,
2013-01-15 06:04:00,6.6,1.8,30.83,WNW,286,0.0,0.0,80,0.00,,CLR,0.00,0.00,VWS V14.01,2013-01-15 14:04:00,
2013-01-15 06:09:00,6.4,1.6,30.84,WNW,286,0.0,0.0,80,0.00,,CLR,0.00,0.00,VWS V14.01,2013-01-15 14:09:00,
2013-01-15 06:14:00,6.3,1.5,30.84,WNW,286,0.0,0.0,80,0.00,,CLR,0.00,0.00,VWS V14.01,2013-01-15 14:14:00,
2013-01-15 06:19:00,6.3,1.7,30.84,WNW,286,0.0,0.0,81,0.00,,CLR,0.00,0.00,VWS V14.01,2013-01-15 14:19:00,
2013-01-15 06:24:00,6.3,1.7,30.85,WNW,286,2.0,2.0,81,0.00,,FEW270,0.00,0.00,VWS V14.01,2013-01-15 14:24:00,
2013-01-15 06:29:00,6.3,1.7,30.85,WNW,286,1.0,2.0,81,0.00,,FEW270,0.00,0.00,VWS V14.01,2013-01-15 14:29:00,
2013-01-15 06:34:00,6.4,1.8,30.85,WNW,286,1.0,2.0,81,0.00,,FEW270,0.00,0.00,VWS V14.01,2013-01-15 14:34:00,
2013-01-15 06:39:00,6.5,1.9,30.86,WNW,286,0.0,1.0,81,0.00,,FEW270,0.00,0.00,VWS V14.01,2013-01-15 14:39:00,
2013-01-15 06:44:00,6.5,1.9,30.86,WNW,286,0.0,0.0,81,0.00,,FEW270,0.00,0.00,VWS V14.01,2013-01-15 14:44:00,
2013-01-15 06:49:00,6.5,1.9,30.86,WNW,286,1.0,1.0,81,0.00,,FEW270,0.00,0.00,VWS V14.01,2013-01-15 14:49:00,
2013-01-15 06:55:00,6.5,1.9,30.86,WNW,286,0.0,1.0,81,0.00,,FEW270,0.00,0.00,VWS V14.01,2013-01-15 14:55:00,
2013-01-15 07:00:00,6.5,1.9,30.87,WNW,286,0.0,0.0,81,0.00,,FEW270,0.00,0.00,VWS V14.01,2013-01-15 15:00:00,
2013-01-15 07:05:00,6.6,2.0,30.87,WNW,286,0.0,0.0,81,0.00,,BKN270,0.00,5.00,VWS V14.01,2013-01-15 15:05:00,
2013-01-15 07:10:00,6.6,2.0,30.87,WNW,286,0.0,0.0,81,0.00,,BKN270,0.00,5.00,VWS V14.01,2013-01-15 15:10:00,
2013-01-15 07:15:00,6.5,1.9,30.87,WNW,286,0.0,0.0,81,0.00,,BKN270,0.00,7.00,VWS V14.01,2013-01-15 15:15:00,
2013-01-15 07:20:00,6.5,1.9,30.87,WNW,286,0.0,0.0,81,0.00,,BKN270,0.00,9.00,VWS V14.01,2013-01-15 15:20:00,
2013-01-15 07:25:00,6.4,1.8,30.87,WNW,286,0.0,0.0,81,0.00,,BKN270,0.00,14.00,VWS V14.01,2013-01-15 15:25:00,
2013-01-15 07:30:00,6.9,2.3,30.87,WNW,286,0.0,0.0,81,0.00,,BKN270,0.00,21.00,VWS V14.01,2013-01-15 15:30:00,
2013-01-15 07:35:00,7.6,3.0,30.88,WNW,286,0.0,0.0,81,0.00,,BKN270,0.00,28.00,VWS V14.01,2013-01-15 15:35:00,
2013-01-15 07:40:00,8.3,3.7,30.88,WNW,286,0.0,1.0,81,0.00,,BKN270,0.00,35.00,VWS V14.01,2013-01-15 15:40:00,
2013-01-15 07:45:00,9.2,4.6,30.88,WNW,286,0.0,1.0,81,0.00,,BKN270,0.00,44.00,VWS V14.01,2013-01-15 15:45:00,
2013-01-15 07:50:00,9.7,4.8,30.88,WNW,286,1.0,1.0,80,0.00,,BKN270,0.00,56.00,VWS V14.01,2013-01-15 15:50:00,
2013-01-15 07:55:00,10.2,5.0,30.88,WNW,286,0.0,0.0,79,0.00,,BKN270,0.00,69.00,VWS V14.01,2013-01-15 15:55:00,
2013-01-15 08:00:00,10.7,5.5,30.88,WNW,286,0.0,1.0,79,0.00,,BKN270,0.00,76.00,VWS V14.01,2013-01-15 16:00:00,
2013-01-15 08:05:00,11.6,6.4,30.88,WNW,286,0.0,0.0,79,0.00,,OVC250,0.00,84.00,VWS V14.01,2013-01-15 16:05:00,
2013-01-15 08:10:00,11.5,5.7,30.88,WNW,286,0.0,0.0,77,0.00,,OVC250,0.00,93.00,VWS V14.01,2013-01-15 16:10:00,
2013-01-15 08:15:00,11.7,5.9,30.89,WNW,286,0.0,1.0,77,0.00,,OVC250,0.00,100.00,VWS V14.01,2013-01-15 16:15:00,
2013-01-15 08:20:00,12.0,5.9,30.89,WNW,286,0.0,1.0,76,0.00,,OVC250,0.00,113.00,VWS V14.01,2013-01-15 16:20:00,
2013-01-15 08:25:00,12.6,6.5,30.89,WNW,286,1.0,2.0,76,0.00,,OVC250,0.00,132.00,VWS V14.01,2013-01-15 16:25:00,
2013-01-15 08:30:00,13.2,6.8,30.90,WNW,286,0.0,2.0,75,0.00,,OVC250,0.00,153.00,VWS V14.01,2013-01-15 16:30:00,
2013-01-15 08:35:00,13.7,7.3,30.90,WNW,294,1.0,2.0,75,0.00,,OVC250,0.00,158.00,VWS V14.01,2013-01-15 16:35:00,
2013-01-15 08:40:00,14.0,7.2,30.90,WNW,294,0.0,1.0,74,0.00,,OVC250,0.00,165.00,VWS V14.01,2013-01-15 16:40:00,
2013-01-15 08:45:00,14.9,8.1,30.89,WNW,294,0.0,2.0,74,0.00,,OVC250,0.00,186.00,VWS V14.01,2013-01-15 16:45:00,
2013-01-15 08:50:00,15.5,8.1,30.89,WNW,294,0.0,1.0,72,0.00,,OVC250,0.00,200.00,VWS V14.01,2013-01-15 16:50:00,
2013-01-15 08:55:00,16.1,8.4,30.89,WNW,294,0.0,2.0,71,0.00,,OVC250,0.00,223.00,VWS V14.01,2013-01-15 16:55:00,
2013-01-15 09:00:00,16.4,8.3,30.90,WNW,295,0.0,2.0,70,0.00,,OVC250,0.00,244.00,VWS V14.01,2013-01-15 17:00:00,
2013-01-15 09:05:00,16.8,8.7,30.90,WNW,295,0.0,2.0,70,0.00,,OVC250,0.00,246.00,VWS V14.01,2013-01-15 17:05:00,
2013-01-15 09:10:00,17.2,9.1,30.90,WNW,295,1.0,2.0,70,0.00,,OVC250,0.00,260.00,VWS V14.01,2013-01-15 17:10:00,
2013-01-15 09:15:00,17.6,9.5,30.90,WNW,296,1.0,2.0,70,0.00,,OVC250,0.00,279.00,VWS V14.01,2013-01-15 17:15:00,
2013-01-15 09:20:00,17.9,9.5,30.90,WNW,296,0.0,2.0,69,0.00,,OVC250,0.00,267.00,VWS V14.01,2013-01-15 17:20:00,
2013-01-15 09:25:00,18.3,9.5,30.90,WNW,296,2.0,3.0,68,0.00,,OVC250,0.00,253.00,VWS V14.01,2013-01-15 17:25:00,
2013-01-15 09:30:00,18.5,9.4,30.90,WNW,296,0.0,2.0,67,0.00,,OVC250,0.00,299.00,VWS V14.01,2013-01-15 17:30:00,
2013-01-15 09:35:00,19.0,9.9,30.90,WNW,296,0.0,1.0,67,0.00,,OVC250,0.00,279.00,VWS V14.01,2013-01-15 17:35:00,
2013-01-15 09:40:00,21.2,11.6,30.90,WNW,296,0.0,0.0,66,0.00,,OVC250,0.00,320.00,VWS V14.01,2013-01-15 17:40:00,
2013-01-15 09:45:00,21.7,11.1,30.90,WNW,296,0.0,0.0,63,0.00,,OVC250,0.00,341.00,VWS V14.01,2013-01-15 17:45:00,
2013-01-15 09:50:00,21.7,10.7,30.90,WNW,296,0.0,0.0,62,0.00,,OVC250,0.00,339.00,VWS V14.01,2013-01-15 17:50:00,
2013-01-15 09:55:00,22.0,10.6,30.90,WNW,296,0.0,1.0,61,0.00,,OVC250,0.00,339.00,VWS V14.01,2013-01-15 17:55:00,
2013-01-15 10:00:00,22.7,10.2,30.90,WNW,296,0.0,0.0,58,0.00,,OVC250,0.00,359.00,VWS V14.01,2013-01-15 18:00:00,
2013-01-15 10:05:00,21.4,10.1,30.90,NE,36,0.0,3.0,61,0.00,,OVC250,0.00,380.00,VWS V14.01,2013-01-15 18:05:00,
2013-01-15 10:10:00,22.0,11.0,30.90,NE,36,0.0,2.0,62,0.00,,OVC250,0.00,371.00,VWS V14.01,2013-01-15 18:10:00,
2013-01-15 10:15:00,22.0,10.2,30.90,NNE,24,2.0,3.0,60,0.00,,OVC250,0.00,387.00,VWS V14.01,2013-01-15 18:15:00,
2013-01-15 10:20:00,22.3,10.9,30.90,NNE,20,0.0,3.0,61,0.00,,OVC250,0.00,385.00,VWS V14.01,2013-01-15 18:20:00,
2013-01-15 10:25:00,24.0,11.4,30.90,NW,311,2.0,3.0,58,0.00,,OVC250,0.00,390.00,VWS V14.01,2013-01-15 18:25:00,
2013-01-15 10:30:00,23.7,11.1,30.90,WNW,290,1.0,2.0,58,0.00,,OVC250,0.00,406.00,VWS V14.01,2013-01-15 18:30:00,
2013-01-15 10:35:00,23.6,9.8,30.89,WNW,290,0.0,2.0,55,0.00,,OVC250,0.00,422.00,VWS V14.01,2013-01-15 18:35:00,
2013-01-15 10:40:00,24.1,9.9,30.89,WNW,290,0.0,2.0,54,0.00,,OVC250,0.00,438.00,VWS V14.01,2013-01-15 18:40:00,
2013-01-15 10:45:00,24.8,10.9,30.89,WNW,290,0.0,2.0,55,0.00,,OVC250,0.00,404.00,VWS V14.01,2013-01-15 18:45:00,
2013-01-15 10:50:00,25.8,11.5,30.89,WNW,290,2.0,2.0,54,0.00,,OVC250,0.00,388.00,VWS V14.01,2013-01-15 18:50:00,
2013-01-15 10:55:00,23.9,10.1,30.88,NNW,329,0.0,4.0,55,0.00,,OVC250,0.00,420.00,VWS V14.01,2013-01-15 18:55:00,
2013-01-15 11:00:00,25.6,11.3,30.88,NNW,329,1.0,2.0,54,0.00,,OVC250,0.00,445.00,VWS V14.01,2013-01-15 19:00:00,
2013-01-15 11:05:00,25.3,10.6,30.88,NNW,335,0.0,3.0,53,0.00,,OVC250,0.00,457.00,VWS V14.01,2013-01-15 19:05:00,
2013-01-15 11:10:00,25.5,10.3,30.87,NW,304,3.0,3.0,52,0.00,,OVC250,0.00,476.00,VWS V14.01,2013-01-15 19:10:00,
2013-01-15 11:15:00,27.7,11.9,30.87,NW,304,0.0,2.0,51,0.00,,OVC250,0.00,482.00,VWS V14.01,2013-01-15 19:15:00,
2013-01-15 11:20:00,29.1,12.3,30.87,SE,145,0.0,2.0,49,0.00,,OVC250,0.00,473.00,VWS V14.01,2013-01-15 19:20:00,
2013-01-15 11:25:00,26.2,11.0,30.87,NNE,26,0.0,4.0,52,0.00,,OVC250,0.00,468.00,VWS V14.01,2013-01-15 19:25:00,
2013-01-15 11:30:00,26.8,11.6,30.87,NE,37,3.0,6.0,52,0.00,,OVC250,0.00,485.00,VWS V14.01,2013-01-15 19:30:00,
2013-01-15 11:35:00,26.6,11.8,30.86,ENE,64,0.0,5.0,53,0.00,,OVC250,0.00,492.00,VWS V14.01,2013-01-15 19:35:00,
2013-01-15 11:40:00,27.2,11.9,30.86,East,84,1.0,3.0,52,0.00,,OVC250,0.00,496.00,VWS V14.01,2013-01-15 19:40:00,
2013-01-15 11:45:00,27.8,11.6,30.86,SE,130,2.0,3.0,50,0.00,,OVC250,0.00,489.00,VWS V14.01,2013-01-15 19:45:00,
2013-01-15 11:50:00,27.4,10.8,30.86,WNW,299,2.0,4.0,49,0.00,,OVC250,0.00,450.00,VWS V14.01,2013-01-15 19:50:00,
2013-01-15 11:55:00,28.7,12.0,30.85,South,180,2.0,2.0,49,0.00,,OVC250,0.00,480.00,VWS V14.01,2013-01-15 19:55:00,
2013-01-15 12:00:00,28.5,11.8,30.85,NE,36,1.0,4.0,49,0.00,,OVC250,0.00,504.00,VWS V14.01,2013-01-15 20:00:00,
2013-01-15 12:05:00,27.9,11.2,30.85,ENE,66,4.0,4.0,49,0.00,,OVC250,0.00,480.00,VWS V14.01,2013-01-15 20:05:00,
2013-01-15 12:10:00,27.7,11.5,30.85,NE,50,2.0,5.0,50,0.00,,OVC250,0.00,497.00,VWS V14.01,2013-01-15 20:10:00,
2013-01-15 12:15:00,28.4,11.7,30.85,NE,44,3.0,4.0,49,0.00,,OVC250,0.00,482.00,VWS V14.01,2013-01-15 20:15:00,
2013-01-15 12:20:00,27.9,11.7,30.85,NE,48,0.0,5.0,50,0.00,,OVC250,0.00,462.00,VWS V14.01,2013-01-15 20:20:00,
2013-01-15 12:25:00,28.5,11.8,30.85,ENE,58,0.0,3.0,49,0.00,,OVC250,0.00,448.00,VWS V14.01,2013-01-15 20:25:00,
2013-01-15 12:30:00,29.1,11.4,30.85,NNE,29,0.0,4.0,47,0.00,,OVC250,0.00,468.00,VWS V14.01,2013-01-15 20:30:00,
2013-01-15 12:35:00,29.7,12.4,30.84,WNW,301,3.0,3.0,48,0.00,,OVC250,0.00,431.00,VWS V14.01,2013-01-15 20:35:00,
2013-01-15 12:40:00,29.2,11.5,30.84,WNW,303,0.0,3.0,47,0.00,,OVC250,0.00,432.00,VWS V14.01,2013-01-15 20:40:00,
2013-01-15 12:45:00,29.2,12.0,30.84,North,5,0.0,3.0,48,0.00,,OVC250,0.00,466.00,VWS V14.01,2013-01-15 20:45:00,
2013-01-15 12:50:00,29.7,11.9,30.84,ENE,58,0.0,3.0,47,0.00,,OVC250,0.00,459.00,VWS V14.01,2013-01-15 20:50:00,
2013-01-15 12:55:00,30.8,12.5,30.84,ESE,117,3.0,4.0,46,0.00,,OVC250,0.00,450.00,VWS V14.01,2013-01-15 20:55:00,
2013-01-15 13:00:00,31.2,13.3,30.84,ESE,109,0.0,4.0,47,0.00,,OVC250,0.00,422.00,VWS V14.01,2013-01-15 21:00:00,
2013-01-15 13:05:00,30.7,12.4,30.84,East,83,0.0,3.0,46,0.00,,OVC250,0.00,343.00,VWS V14.01,2013-01-15 21:05:00,
2013-01-15 13:10:00,30.4,12.1,30.83,NNE,27,2.0,4.0,46,0.00,,OVC250,0.00,316.00,VWS V14.01,2013-01-15 21:10:00,
2013-01-15 13:15:00,30.4,12.6,30.83,NE,53,2.0,3.0,47,0.00,,OVC250,0.00,332.00,VWS V14.01,2013-01-15 21:15:00,
2013-01-15 13:20:00,30.5,12.2,30.83,NE,36,0.0,3.0,46,0.00,,OVC250,0.00,413.00,VWS V14.01,2013-01-15 21:20:00,
2013-01-15 13:25:00,32.1,12.7,30.83,North,10,2.0,3.0,44,0.00,,OVC250,0.00,392.00,VWS V14.01,2013-01-15 21:25:00,
2013-01-15 13:30:00,30.4,11.6,30.83,North,5,2.0,4.0,45,0.00,,OVC250,0.00,397.00,VWS V14.01,2013-01-15 21:30:00,
2013-01-15 13:35:00,30.4,12.6,30.83,NW,307,1.0,3.0,47,0.00,,OVC250,0.00,394.00,VWS V14.01,2013-01-15 21:35:00,
2013-01-15 13:40:00,30.5,12.2,30.83,North,360,1.0,4.0,46,0.00,,OVC250,0.00,378.00,VWS V14.01,2013-01-15 21:40:00,
2013-01-15 13:45:00,32.3,13.4,30.83,SSE,157,1.0,3.0,45,0.00,,OVC250,0.00,364.00,VWS V14.01,2013-01-15 21:45:00,
2013-01-15 13:50:00,31.8,12.4,30.83,ENE,76,0.0,2.0,44,0.00,,OVC250,0.00,355.00,VWS V14.01,2013-01-15 21:50:00,
2013-01-15 13:55:00,30.7,12.4,30.84,NE,38,1.0,3.0,46,0.00,,OVC250,0.00,332.00,VWS V14.01,2013-01-15 21:55:00,
2013-01-15 14:00:00,31.9,13.0,30.83,NNE,12,0.0,5.0,45,0.00,,OVC250,0.00,338.00,VWS V14.01,2013-01-15 22:00:00,
2013-01-15 14:05:00,31.1,12.8,30.84,NNE,17,0.0,4.0,46,0.00,,OVC250,0.00,348.00,VWS V14.01,2013-01-15 22:05:00,
2013-01-15 14:10:00,30.6,12.3,30.84,NW,316,0.0,5.0,46,0.00,,OVC250,0.00,367.00,VWS V14.01,2013-01-15 22:10:00,
2013-01-15 14:15:00,32.4,13.9,30.84,WSW,245,1.0,2.0,46,0.00,,OVC250,0.00,355.00,VWS V14.01,2013-01-15 22:15:00,
2013-01-15 14:20:00,32.6,13.1,30.84,WNW,289,2.0,2.0,44,0.00,,OVC250,0.00,348.00,VWS V14.01,2013-01-15 22:20:00,
2013-01-15 14:25:00,32.4,12.9,30.84,SSW,200,0.0,2.0,44,0.00,,OVC250,0.00,334.00,VWS V14.01,2013-01-15 22:25:00,
2013-01-15 14:30:00,32.3,12.8,30.84,NNE,13,2.0,3.0,44,0.00,,OVC250,0.00,320.00,VWS V14.01,2013-01-15 22:30:00,
2013-01-15 14:35:00,31.6,12.2,30.84,NNW,330,1.0,4.0,44,0.00,,OVC250,0.00,316.00,VWS V14.01,2013-01-15 22:35:00,
2013-01-15 14:40:00,31.8,12.9,30.84,NW,325,1.0,1.0,45,0.00,,OVC250,0.00,299.00,VWS V14.01,2013-01-15 22:40:00,
2013-01-15 14:45:00,31.4,12.5,30.84,NNW,331,3.0,3.0,45,0.00,,OVC250,0.00,295.00,VWS V14.01,2013-01-15 22:45:00,
2013-01-15 14:50:00,31.4,12.5,30.84,North,351,2.0,2.0,45,0.00,,OVC250,0.00,272.00,VWS V14.01,2013-01-15 22:50:00,
2013-01-15 14:55:00,31.2,12.4,30.84,NW,311,3.0,4.0,45,0.00,,OVC250,0.00,250.00,VWS V14.01,2013-01-15 22:55:00,
2013-01-15 15:00:00,31.6,13.2,30.84,North,355,4.0,4.0,46,0.00,,OVC250,0.00,239.00,VWS V14.01,2013-01-15 23:00:00,
2013-01-15 15:05:00,31.4,12.5,30.84,NNW,331,3.0,4.0,45,0.00,,OVC250,0.00,230.00,VWS V14.01,2013-01-15 23:05:00,
2013-01-15 15:10:00,31.9,12.5,30.84,NNW,332,0.0,3.0,44,0.00,,OVC250,0.00,220.00,VWS V14.01,2013-01-15 23:10:00,
2013-01-15 15:15:00,32.4,12.9,30.84,NW,325,3.0,5.0,44,0.00,,OVC250,0.00,221.00,VWS V14.01,2013-01-15 23:15:00,
2013-01-15 15:20:00,31.7,12.3,30.84,North,5,2.0,4.0,44,0.00,,OVC250,0.00,213.00,VWS V14.01,2013-01-15 23:20:00,
2013-01-15 15:25:00,32.3,13.4,30.84,North,5,0.0,3.0,45,0.00,,OVC250,0.00,165.00,VWS V14.01,2013-01-15 23:25:00,
2013-01-15 15:30:00,31.9,12.5,30.84,NNW,335,0.0,0.0,44,0.00,,OVC250,0.00,160.00,VWS V14.01,2013-01-15 23:30:00,
2013-01-15 15:35:00,32.0,13.1,30.84,NNW,341,0.0,0.0,45,0.00,,OVC250,0.00,153.00,VWS V14.01,2013-01-15 23:35:00,
2013-01-15 15:40:00,32.3,12.8,30.85,NNW,341,0.0,0.0,44,0.00,,OVC250,0.00,128.00,VWS V14.01,2013-01-15 23:40:00,
2013-01-15 15:45:00,32.7,12.7,30.84,NNW,341,0.0,0.0,43,0.00,,OVC250,0.00,125.00,VWS V14.01,2013-01-15 23:45:00,
2013-01-15 15:50:00,31.9,13.0,30.84,NNW,341,0.0,0.0,45,0.00,,OVC250,0.00,111.00,VWS V14.01,2013-01-15 23:50:00,
2013-01-15 15:55:00,31.9,13.0,30.84,NNW,342,0.0,0.0,45,0.00,,OVC250,0.00,100.00,VWS V14.01,2013-01-15 23:55:00,
2013-01-15 16:00:00,31.7,12.8,30.85,NNW,340,1.0,2.0,45,0.00,,OVC250,0.00,81.00,VWS V14.01,2013-01-16 00:00:00,
2013-01-15 16:05:00,31.6,12.7,30.85,NNE,16,1.0,2.0,45,0.00,,OVC250,0.00,62.00,VWS V14.01,2013-01-16 00:05:00,
2013-01-15 16:10:00,31.4,13.0,30.85,NNE,16,0.0,2.0,46,0.00,,OVC250,0.00,60.00,VWS V14.01,2013-01-16 00:10:00,
2013-01-15 16:15:00,31.4,13.0,30.85,NNE,16,1.0,2.0,46,0.00,,OVC250,0.00,60.00,VWS V14.01,2013-01-16 00:15:00,
2013-01-15 16:20:00,31.4,13.5,30.85,NNE,15,0.0,2.0,47,0.00,,OVC250,0.00,51.00,VWS V14.01,2013-01-16 00:20:00,
2013-01-15 16:25:00,31.2,13.3,30.85,NNE,15,1.0,2.0,47,0.00,,OVC250,0.00,42.00,VWS V14.01,2013-01-16 00:25:00,
2013-01-15 16:30:00,30.9,13.5,30.85,NNE,16,2.0,2.0,48,0.00,,OVC250,0.00,35.00,VWS V14.01,2013-01-16 00:30:00,
2013-01-15 16:35:00,30.6,13.7,30.86,NE,43,0.0,3.0,49,0.00,,OVC250,0.00,28.00,VWS V14.01,2013-01-16 00:35:00,
2013-01-15 16:40:00,30.3,13.4,30.85,NE,45,2.0,4.0,49,0.00,,OVC250,0.00,21.00,VWS V14.01,2013-01-16 00:40:00,
2013-01-15 16:45:00,30.2,13.8,30.86,NE,45,1.0,3.0,50,0.00,,OVC250,0.00,16.00,VWS V14.01,2013-01-16 00:45:00,
2013-01-15 16:50:00,30.1,13.7,30.86,NE,45,0.0,0.0,50,0.00,,OVC250,0.00,11.00,VWS V14.01,2013-01-16 00:50:00,
2013-01-15 16:55:00,29.9,13.5,30.86,NE,45,1.0,2.0,50,0.00,,OVC250,0.00,5.00,VWS V14.01,2013-01-16 00:55:00,
2013-01-15 17:00:00,29.7,13.8,30.86,NE,45,0.0,2.0,51,0.00,,OVC250,0.00,5.00,VWS V14.01,2013-01-16 01:00:00,
2013-01-15 17:05:00,29.3,13.4,30.86,NE,45,0.0,1.0,51,0.00,,OVC250,0.00,0.00,VWS V14.01,2013-01-16 01:05:00,
2013-01-15 17:10:00,29.1,13.7,30.86,NE,45,0.0,1.0,52,0.00,,OVC250,0.00,0.00,VWS V14.01,2013-01-16 01:10:00,
2013-01-15 17:15:00,28.9,13.5,30.86,NE,45,0.0,1.0,52,0.00,,OVC250,0.00,0.00,VWS V14.01,2013-01-16 01:15:00,
2013-01-15 17:20:00,28.8,13.4,30.86,NE,45,0.0,0.0,52,0.00,,OVC250,0.00,0.00,VWS V14.01,2013-01-16 01:20:00,
2013-01-15 17:25:00,28.7,13.3,30.86,NE,45,0.0,0.0,52,0.00,,OVC250,0.00,0.00,VWS V14.01,2013-01-16 01:25:00,
2013-01-15 17:30:00,28.4,13.5,30.86,NE,45,0.0,1.0,53,0.00,,OVC250,0.00,0.00,VWS V14.01,2013-01-16 01:30:00,
2013-01-15 17:35:00,28.2,13.7,30.86,NE,45,0.0,0.0,54,0.00,,OVC250,0.00,0.00,VWS V14.01,2013-01-16 01:35:00,
2013-01-15 17:40:00,28.0,13.5,30.86,NE,45,0.0,0.0,54,0.00,,OVC250,0.00,0.00,VWS V14.01,2013-01-16 01:40:00,
2013-01-15 17:45:00,27.8,13.3,30.87,NE,45,0.0,2.0,54,0.00,,OVC250,0.00,0.00,VWS V14.01,2013-01-16 01:45:00,
2013-01-15 17:50:00,27.6,13.1,30.87,NE,45,1.0,1.0,54,0.00,,OVC250,0.00,0.00,VWS V14.01,2013-01-16 01:50:00,
2013-01-15 17:55:00,27.2,13.2,30.87,NE,45,0.0,1.0,55,0.00,,OVC250,0.00,0.00,VWS V14.01,2013-01-16 01:55:00,
2013-01-15 18:00:00,26.8,12.8,30.87,NE,45,0.0,1.0,55,0.00,,OVC250,0.00,0.00,VWS V14.01,2013-01-16 02:00:00,
2013-01-15 18:05:00,26.3,12.3,30.87,NE,45,2.0,2.0,55,0.00,,SCT180,0.00,0.00,VWS V14.01,2013-01-16 02:05:00,
2013-01-15 18:10:00,25.7,12.2,30.87,NE,45,1.0,2.0,56,0.00,,SCT180,0.00,0.00,VWS V14.01,2013-01-16 02:10:00,
2013-01-15 18:15:00,25.3,12.2,30.88,NE,45,1.0,2.0,57,0.00,,SCT180,0.00,0.00,VWS V14.01,2013-01-16 02:15:00,
2013-01-15 18:20:00,25.2,12.1,30.88,NE,45,0.0,0.0,57,0.00,,SCT180,0.00,0.00,VWS V14.01,2013-01-16 02:20:00,
2013-01-15 18:25:00,25.2,12.1,30.88,NE,45,0.0,1.0,57,0.00,,SCT180,0.00,0.00,VWS V14.01,2013-01-16 02:25:00,
2013-01-15 18:30:00,25.1,12.0,30.88,NE,45,0.0,1.0,57,0.00,,SCT180,0.00,0.00,VWS V14.01,2013-01-16 02:30:00,
2013-01-15 18:35:00,24.9,12.2,30.88,NE,45,0.0,2.0,58,0.00,,SCT180,0.00,0.00,VWS V14.01,2013-01-16 02:35:00,
2013-01-15 18:40:00,24.6,11.9,30.88,NE,45,0.0,1.0,58,0.00,,SCT180,0.00,0.00,VWS V14.01,2013-01-16 02:40:00,
2013-01-15 18:45:00,24.6,11.9,30.88,NE,45,0.0,0.0,58,0.00,,SCT180,0.00,0.00,VWS V14.01,2013-01-16 02:45:00,
2013-01-15 18:50:00,23.9,11.7,30.88,NE,51,0.0,2.0,59,0.00,,SCT180,0.00,0.00,VWS V14.01,2013-01-16 02:50:00,
2013-01-15 18:55:00,23.8,12.0,30.88,NE,51,0.0,2.0,60,0.00,,SCT180,0.00,0.00,VWS V14.01,2013-01-16 02:55:00,
2013-01-15 19:00:00,23.8,12.0,30.88,ENE,63,0.0,2.0,60,0.00,,SCT180,0.00,0.00,VWS V14.01,2013-01-16 03:00:00,
2013-01-15 19:05:00,23.7,11.9,30.88,ENE,63,0.0,2.0,60,0.00,,SCT180,0.00,0.00,VWS V14.01,2013-01-16 03:05:00,
2013-01-15 19:10:00,23.6,11.8,30.89,ENE,63,0.0,0.0,60,0.00,,SCT180,0.00,0.00,VWS V14.01,2013-01-16 03:10:00,
2013-01-15 19:15:00,23.6,11.8,30.89,ENE,63,0.0,0.0,60,0.00,,SCT180,0.00,0.00,VWS V14.01,2013-01-16 03:15:00,
2013-01-15 19:20:00,23.4,11.6,30.89,ENE,63,0.0,0.0,60,0.00,,SCT180,0.00,0.00,VWS V14.01,2013-01-16 03:20:00,
2013-01-15 19:25:00,23.3,11.5,30.90,ENE,63,0.0,0.0,60,0.00,,SCT180,0.00,0.00,VWS V14.01,2013-01-16 03:25:00,
2013-01-15 19:30:00,23.1,11.3,30.89,ENE,63,0.0,0.0,60,0.00,,SCT180,0.00,0.00,VWS V14.01,2013-01-16 03:30:00,
2013-01-15 19:35:00,22.9,11.5,30.90,ENE,63,0.0,0.0,61,0.00,,SCT180,0.00,0.00,VWS V14.01,2013-01-16 03:35:00,
2013-01-15 19:40:00,22.6,11.2,30.90,ENE,63,0.0,0.0,61,0.00,,SCT180,0.00,0.00,VWS V14.01,2013-01-16 03:40:00,
2013-01-15 19:45:00,22.4,11.0,30.90,ENE,63,0.0,0.0,61,0.00,,SCT180,0.00,0.00,VWS V14.01,2013-01-16 03:45:00,
2013-01-15 19:50:00,22.1,11.1,30.89,ENE,63,0.0,0.0,62,0.00,,SCT180,0.00,0.00,VWS V14.01,2013-01-16 03:50:00,
2013-01-15 19:55:00,21.5,10.9,30.90,ENE,63,0.0,1.0,63,0.00,,SCT180,0.00,0.00,VWS V14.01,2013-01-16 03:55:00,
2013-01-15 20:00:00,21.2,10.6,30.89,ENE,63,1.0,1.0,63,0.00,,SCT180,0.00,0.00,VWS V14.01,2013-01-16 04:00:00,
2013-01-15 20:05:00,20.6,10.4,30.89,ENE,63,1.0,2.0,64,0.00,,CLR,0.00,0.00,VWS V14.01,2013-01-16 04:05:00,
2013-01-15 20:10:00,20.3,10.4,30.90,North,360,0.0,3.0,65,0.00,,CLR,0.00,0.00,VWS V14.01,2013-01-16 04:10:00,
2013-01-15 20:15:00,20.2,10.3,30.90,North,360,1.0,2.0,65,0.00,,CLR,0.00,0.00,VWS V14.01,2013-01-16 04:15:00,
2013-01-15 20:20:00,20.1,10.2,30.90,North,360,0.0,1.0,65,0.00,,CLR,0.00,0.00,VWS V14.01,2013-01-16 04:20:00,
2013-01-15 20:25:00,19.9,10.1,30.90,North,360,0.0,0.0,65,0.00,,CLR,0.00,0.00,VWS V14.01,2013-01-16 04:25:00,
2013-01-15 20:30:00,19.5,9.7,30.90,North,360,0.0,1.0,65,0.00,,CLR,0.00,0.00,VWS V14.01,2013-01-16 04:30:00,
2013-01-15 20:35:00,19.2,9.4,30.90,North,360,0.0,1.0,65,0.00,,CLR,0.00,0.00,VWS V14.01,2013-01-16 04:35:00,
2013-01-15 20:40:00,18.9,9.4,30.91,North,360,0.0,1.0,66,0.00,,CLR,0.00,0.00,VWS V14.01,2013-01-16 04:40:00,
2013-01-15 20:45:00,18.8,9.3,30.90,North,360,0.0,0.0,66,0.00,,CLR,0.00,0.00,VWS V14.01,2013-01-16 04:45:00,
2013-01-15 20:50:00,18.6,9.1,30.90,North,360,0.0,0.0,66,0.00,,CLR,0.00,0.00,VWS V14.01,2013-01-16 04:50:00,
2013-01-15 20:55:00,18.2,9.1,30.90,North,360,0.0,0.0,67,0.00,,CLR,0.00,0.00,VWS V14.01,2013-01-16 04:55:00,
2013-01-15 21:00:00,18.0,9.2,30.90,North,360,0.0,0.0,68,0.00,,CLR,0.00,0.00,VWS V14.01,2013-01-16 05:00:00,
2013-01-15 21:02:00,18.0,9.2,30.90,North,360,0.0,0.0,68,0.00,,CLR,0.00,0.00,VWS V14.01,2013-01-16 05:02:00,
2013-01-15 21:07:00,17.7,9.3,30.90,North,360,0.0,1.0,69,0.00,,CLR,0.00,0.00,VWS V14.01,2013-01-16 05:07:00,
2013-01-15 21:12:00,17.6,9.5,30.90,North,360,0.0,0.0,70,0.00,,CLR,0.00,0.00,VWS V14.01,2013-01-16 05:12:00,
2013-01-15 21:17:00,17.5,9.1,30.90,North,360,0.0,0.0,69,0.00,,CLR,0.00,0.00,VWS V14.01,2013-01-16 05:17:00,
2013-01-15 21:22:00,17.3,8.9,30.90,North,360,0.0,0.0,69,0.00,,CLR,0.00,0.00,VWS V14.01,2013-01-16 05:22:00,
2013-01-15 21:27:00,17.0,8.9,30.90,North,360,0.0,1.0,70,0.00,,CLR,0.00,0.00,VWS V14.01,2013-01-16 05:27:00,
2013-01-15 21:32:00,16.7,8.6,30.90,North,360,0.0,1.0,70,0.00,,CLR,0.00,0.00,VWS V14.01,2013-01-16 05:32:00,
2013-01-15 21:37:00,16.4,8.7,30.90,North,360,0.0,1.0,71,0.00,,CLR,0.00,0.00,VWS V14.01,2013-01-16 05:37:00,
2013-01-15 21:43:00,16.4,9.0,30.90,North,360,1.0,1.0,72,0.00,,CLR,0.00,0.00,VWS V14.01,2013-01-16 05:43:00,
2013-01-15 21:48:00,16.6,9.5,30.90,North,360,1.0,2.0,73,0.00,,CLR,0.00,0.00,VWS V14.01,2013-01-16 05:48:00,
2013-01-15 21:53:00,16.7,9.6,30.90,North,360,0.0,1.0,73,0.00,,CLR,0.00,0.00,VWS V14.01,2013-01-16 05:53:00,
2013-01-15 21:58:00,16.6,9.5,30.90,North,360,1.0,1.0,73,0.00,,CLR,0.00,0.00,VWS V14.01,2013-01-16 05:58:00,
2013-01-15 22:03:00,16.3,9.2,30.90,North,360,1.0,2.0,73,0.00,,CLR,0.00,0.00,VWS V14.01,2013-01-16 06:03:00,
2013-01-15 22:08:00,16.1,9.0,30.89,North,360,1.0,2.0,73,0.00,,CLR,0.00,0.00,VWS V14.01,2013-01-16 06:08:00,
2013-01-15 22:13:00,15.8,8.7,30.89,NNE,32,2.0,4.0,73,0.00,,CLR,0.00,0.00,VWS V14.01,2013-01-16 06:13:00,
2013-01-15 22:18:00,15.7,8.6,30.89,NNE,32,2.0,3.0,73,0.00,,CLR,0.00,0.00,VWS V14.01,2013-01-16 06:18:00,
2013-01-15 22:23:00,15.7,8.3,30.89,NNE,32,1.0,2.0,72,0.00,,CLR,0.00,0.00,VWS V14.01,2013-01-16 06:23:00,
2013-01-15 22:28:00,15.7,8.3,30.90,NNE,32,0.0,1.0,72,0.00,,CLR,0.00,0.00,VWS V14.01,2013-01-16 06:28:00,
2013-01-15 22:33:00,15.9,8.5,30.90,NNE,32,0.0,0.0,72,0.00,,CLR,0.00,0.00,VWS V14.01,2013-01-16 06:33:00,
2013-01-15 22:38:00,16.0,8.6,30.90,NNE,32,0.0,1.0,72,0.00,,CLR,0.00,0.00,VWS V14.01,2013-01-16 06:38:00,
2013-01-15 22:43:00,16.1,8.4,30.90,NNE,32,0.0,0.0,71,0.00,,CLR,0.00,0.00,VWS V14.01,2013-01-16 06:43:00,
2013-01-15 22:48:00,16.0,8.0,30.90,NNE,32,0.0,1.0,70,0.00,,CLR,0.00,0.00,VWS V14.01,2013-01-16 06:48:00,
2013-01-15 22:53:00,16.0,8.0,30.90,NNE,32,0.0,1.0,70,0.00,,CLR,0.00,0.00,VWS V14.01,2013-01-16 06:53:00,
2013-01-15 22:58:00,16.0,8.0,30.90,NNE,32,0.0,0.0,70,0.00,,CLR,0.00,0.00,VWS V14.01,2013-01-16 06:58:00,
2013-01-15 23:03:00,16.0,8.0,30.90,NNE,32,0.0,0.0,70,0.00,,CLR,0.00,0.00,VWS V14.01,2013-01-16 07:03:00,
2013-01-15 23:08:00,15.8,7.8,30.90,NNE,32,0.0,0.0,70,0.00,,CLR,0.00,0.00,VWS V14.01,2013-01-16 07:08:00,
2013-01-15 23:13:00,15.7,7.7,30.90,NNE,32,0.0,0.0,70,0.00,,CLR,0.00,0.00,VWS V14.01,2013-01-16 07:13:00,
2013-01-15 23:18:00,15.6,7.6,30.90,NNE,32,0.0,0.0,70,0.00,,CLR,0.00,0.00,VWS V14.01,2013-01-16 07:18:00,
2013-01-15 23:23:00,15.4,7.4,30.90,NNE,32,0.0,0.0,70,0.00,,CLR,0.00,0.00,VWS V14.01,2013-01-16 07:23:00,
2013-01-15 23:28:00,15.2,7.2,30.91,NNE,32,0.0,0.0,70,0.00,,CLR,0.00,0.00,VWS V14.01,2013-01-16 07:28:00,
2013-01-15 23:33:00,15.0,7.0,30.91,NNE,32,0.0,0.0,70,0.00,,CLR,0.00,0.00,VWS V14.01,2013-01-16 07:33:00,
2013-01-15 23:38:00,14.9,6.9,30.91,NNE,32,0.0,0.0,70,0.00,,CLR,0.00,0.00,VWS V14.01,2013-01-16 07:38:00,
2013-01-15 23:43:00,14.6,6.6,30.91,West,280,2.0,3.0,70,0.00,,CLR,0.00,0.00,VWS V14.01,2013-01-16 07:43:00,
2013-01-15 23:48:00,14.1,6.1,30.91,West,280,1.0,2.0,70,0.00,,CLR,0.00,0.00,VWS V14.01,2013-01-16 07:48:00,
2013-01-15 23:53:00,13.7,6.1,30.91,West,280,0.0,1.0,71,0.00,,CLR,0.00,0.00,VWS V14.01,2013-01-16 07:53:00,
2013-01-15 23:58:00,13.4,6.1,30.91,West,280,1.0,2.0,72,0.00,,CLR,0.00,0.00,VWS V14.01,2013-01-16 07:58:00,